Tracking 33744 objects as of 12-Apr-2026
HD Live streaming from Space Station
objects crossing your sky now

STARLINK-37208

Track STARLINK-37208 now!
10-day predictions
STARLINK-37208 is classified as:


NORAD ID: 68523
Int'l Code: 2026-068R
Perigee: 334.4 km
Apogee: 335.7 km
Inclination: 53.2 °
Period: 91.1 minutes
Semi major axis: 6706 km
RCS: Unknown
Launch date: March 30, 2026
Source: United States (US)
Launch site: AIR FORCE EASTERN TEST RANGE (AFETR)
Your satellite tracking list
Your tracking list is empty




NASA's NSSDC Master Catalog

Two Line Element Set (TLE):
1 68523U 26068R   26102.50001156 -.00049320  00000-0 -24750-3 0  9996
2 68523  53.1591 339.7512 0000985  96.7993  23.0765 15.80895804  3245
Source of the keplerian elements: AFSPC